User: anonymous   Login
Location: Columbia
(38.9520°N, 92.3340°W)
Time: 07:25:58
(UTC-05:00)
Language:

CZ-2C R/B - Orbit

View from above orbital plane
View from above orbital plane
View from above satellite
View from above satellite

Ground track
Ground track

The orbit data is extracted from the following two-line orbital elements,

1 28480U 04046B   17200.31202462 -.00000012 +00000-0 +10412-4 0  9992
2 28480 098.1969 294.4348 0143081 129.4859 268.4413 14.25643192658795
Epoch (UTC): 19 July 2017 07:29:18
Eccentricity: 0.0143081
inclination: 98.1969°
perigee height: 703 km
apogee height: 909 km
right ascension of ascending node: 294.4348°
argument of perigee: 129.4859°
revolutions per day: 14.25643192
mean anomaly at epoch: 268.4413°
orbit number at epoch: 65879

The dashed part of the orbit path shows where the satellite is in the earth's shadow,  

DLR